796  
AXUS43 KGID 290802  
MISGRI  
 
GID CWA HOURLY WEATHER ROUNDUP  
NATIONAL WEATHER SERVICE HASTINGS NE  
200 AM CST MON NOV 29 2021  
 
NOTE: "FAIR" INDICATES FEW OR NO CLOUDS BELOW 12,000 FEET WITH NO  
SIGNIFICANT WEATHER AND/OR OBSTRUCTIONS TO VISIBILITY.  
   
..SOUTH CENTRAL NEBRASKA
 
 
 
CITY SKY/WX TMP DP RH WIND PRES REMARKS  
GRAND ISLAND PTCLDY 40 28 62 SW7 29.94F  
KEARNEY PTCLDY 43 29 57 SW8 29.96F  
HASTINGS PTCLDY 39 29 67 SW5 29.95F  
ORD CLEAR 29 25 85 NW3 29.91F  
YORK CLEAR 36 30 80 SW8 29.94F WCI 29  
AURORA PTCLDY 37 30 74 SW8 29.94F WCI 31  
LEXINGTON CLEAR 33 28 81 W8 29.98F WCI 26  
HOLDREGE CLEAR 48 30 49 W9 29.98S  
HEBRON PTCLDY 41 31 69 SW7 29.98F  
   
..NEBRASKA PANHANDLE
 
 
 
CITY SKY/WX TMP DP RH WIND PRES REMARKS  
CHADRON PTCLDY 39 28 64 SW8 29.99F WCI 33  
ALLIANCE PTCLDY 27 23 85 W10 30.02F WCI 17  
SCOTTSBLUFF CLEAR 36 26 67 N8 30.06F WCI 30  
SIDNEY CLEAR 44 29 55 W12 30.06F  
   
..WESTERN AND NORTH CENTRAL NEBRASKA
 
 
 
CITY SKY/WX TMP DP RH WIND PRES REMARKS  
VALENTINE MOCLDY 39 29 67 SW7 29.92F WCI 34  
AINSWORTH MOCLDY 46 31 56 W7 29.91S  
ONEILL MOCLDY 43 29 58 SW6 29.89S  
BROKEN BOW PTCLDY 43 30 60 E3 29.94F  
IMPERIAL CLEAR 45 27 49 W13 30.04F  
NORTH PLATTE CLEAR 33 27 78 NW10 30.00S WCI 25  
MCCOOK CLEAR 42 26 53 W13 30.01F  
   
..EASTERN NEBRASKA
 
 
 
CITY SKY/WX TMP DP RH WIND PRES REMARKS  
NORFOLK MOCLDY 40 28 62 S3 29.89F  
SO SIOUX CITY PTCLDY 31 25 78 E8 29.89F WCI 23  
TEKAMAH MOCLDY 32 25 75 S9 29.93F WCI 24  
COLUMBUS PTCLDY 37 30 75 SW5 29.94S WCI 33  
ALBION PTCLDY 40 29 66 CALM 29.91F  
OMAHA EPPLEY CLOUDY 37 28 70 SE9 29.96F WCI 30  
MILLARD PTCLDY 37 28 68 SE3 29.96F  
LINCOLN CLEAR 37 28 70 S9 29.96F WCI 30  
NEBRASKA CITY PTCLDY 36 28 72 S13 29.97F WCI 27  
BEATRICE CLEAR 38 30 73 S5 29.98F WCI 34  
FALLS CITY CLEAR 34 27 75 CALM 30.00F  
   
..NORTHERN KANSAS
 
 
 
CITY SKY/WX TMP DP RH WIND PRES REMARKS  
GOODLAND CLEAR 41 23 48 W10 30.07F  
HILL CITY CLEAR 43 28 55 W8 30.02F  
NORTON FAIR 36 27 69 W8 30.02F WCI 29  
PHILLIPSBURG CLEAR 36 25 64 W5 30.00F WCI 32  
OBERLIN FAIR 38 27 62 SW3 30.07S  
SMITH CENTER CLEAR 32 27 80 CALM 30.00F  
HAYS CLEAR 38 27 64 W3 30.03F  
RUSSELL CLEAR 37 28 70 SW10 30.01F WCI 30  
CONCORDIA PTCLDY 44 30 57 S7 29.99F  
SALINA CLEAR 38 30 73 S7 30.03F WCI 33  
TOPEKA PTCLDY 36 28 73 SE5 30.05F WCI 32  
 
CLICK HERE TO GO TO PREVIOUS BULLETINS.

The Nexlab NE Page
The Nexlab KS Page Main Text Page